Regional Weather Roundup
Issued by NWS

Home | Current Version | Previous Version | Graphics & Text | Print | Product List | Glossary On
Versions: 1 2 3 4 5 6 7 8 9 10 11 12 13 14 15 16 17 18 19 20 21 22 23 24 25 26 27 28 29 30 31 32 33 34 35 36 37 38 39 40 41 42 43 44 45 46 47 48 49 50
000
ASUS43 KLMK 231410
RWRKY
KENTUCKY REGIONAL WEATHER ROUNDUP
NATIONAL WEATHER SERVICE LOUISVILLE KY
1000 AM EDT TUE MAY 23 2017

NOTE "FAIR" INDICATES FEW OR NO CLOUDS BELOW 12,000 FEET
WITH NO SIGNIFICANT WEATHER AND/OR OBSTRUCTIONS TO VISIBILITY.

KYZ001>023-026-027-061>063-070>075-231500-
WESTERN AND SOUTH CENTRAL KENTUCKY

CITY           SKY/WX    TMP DP  RH WIND       PRES   REMARKS
PADUCAH        CLOUDY    66  54  65 CALM      29.80F
HENDERSON      MOSUNNY   66  55  67 CALM      29.82F
OWENSBORO      MOSUNNY   68  53  58 SE7       29.81F
HOPKINSVILLE   CLOUDY    66  56  70 CALM      29.79F
BOWLING GREEN  CLOUDY    63  57  81 E3        29.81S
GLASGOW        CLOUDY    62  55  77 E3        29.80F
$$

KYZ024-025-028>034-038-045-046-053-231500-
NORTH CENTRAL KENTUCKY

CITY           SKY/WX    TMP DP  RH WIND       PRES   REMARKS
LOUISVILLE/SDF CLOUDY    67  54  63 SE8       29.82S
LOUISVILLE/LOU CLOUDY    67  55  65 VRB6      29.83F
FORT KNOX      PTSUNNY   63  54  72 E8        29.81S
$$

KYZ035>037-039>044-047>052-055>060-089>105-231500-
NORTHEAST KENTUCKY

CITY           SKY/WX    TMP DP  RH WIND       PRES   REMARKS
LEXINGTON      MOSUNNY   64  52  64 E6        29.84F
COVINGTON      PTSUNNY   65  51  60 E8        29.85F
FRANKFORT      PTSUNNY   65  53  65 VRB7      29.83F
$$

KYZ054-064>069-076>088-106>120-231500-
SOUTHEAST KENTUCKY

CITY           SKY/WX    TMP DP  RH WIND       PRES   REMARKS
JACKSON        CLOUDY    61  56  83 CALM      29.83F
LONDON         CLOUDY    62  54  74 CALM      29.84F
SOMERSET       MOSUNNY   61  54  77 CALM      29.83F
MIDDLESBORO    CLOUDY    62  59  90 CALM      29.84F
MONTICELLO     PTSUNNY   63  57  81 VRB5      29.84F
$$




USA.gov is the U.S. government's official web portal to all federal, state and local government web resources and services.